This is the latest recevied weather packets stored in our database for station/object GW7110. If no packets are shown the sender has not sent any weather packets the latest 1 day(s).
| Time | Temp. | Humidity | Pressure | Rain* | Wind** | Luminosity | Snow |
|---|---|---|---|---|---|---|---|
| 1777992388 | 19.44° C | 63% | 30 hPa | 0 mm | 0.89 m/s, 287° | 62 W/m² | - |
| 1777992088 | 19.44° C | 63% | 30 hPa | 0 mm | 0 m/s | 64 W/m² | - |
| 1777991788 | 18.89° C | 63% | 30 hPa | 0 mm | 0.89 m/s, 314° | 65 W/m² | - |
| 1777991488 | 18.89° C | 62% | 30 hPa | 0 mm | 0.45 m/s, 205° | 72 W/m² | - |
| 1777991188 | 18.89° C | 64% | 30 hPa | 0 mm | 0 m/s | 78 W/m² | - |
| 1777990888 | 18.89° C | 63% | 30 hPa | 0 mm | 0.45 m/s, 277° | 74 W/m² | - |
| 1777990587 | 18.89° C | 64% | 30 hPa | 0 mm | 0.45 m/s, 286° | 71 W/m² | - |
| 1777990288 | 18.33° C | 66% | 30 hPa | 0 mm | 0 m/s | 79 W/m² | - |
| 1777989988 | 18.33° C | 64% | 30 hPa | 0 mm | 0 m/s | 71 W/m² | - |
| 1777989689 | 18.33° C | 64% | 30 hPa | 0 mm | 0 m/s | 72 W/m² | - |
| 1777989388 | 18.33° C | 66% | 30 hPa | 0 mm | 0 m/s | 74 W/m² | - |
| 1777989088 | 18.33° C | 64% | 30 hPa | 0 mm | 0.45 m/s, 279° | 69 W/m² | - |
| 1777988788 | 18.33° C | 65% | 30 hPa | 0 mm | 0.45 m/s, 214° | 71 W/m² | - |
| 1777988490 | 17.78° C | 67% | 30 hPa | 0 mm | 0 m/s | 64 W/m² | - |
| 1777988189 | 17.78° C | 65% | 30 hPa | 0 mm | 0 m/s | 55 W/m² | - |
| 1777987890 | 17.78° C | 66% | 30 hPa | 0 mm | 0.89 m/s, 253° | 49 W/m² | - |
| 1777987589 | 17.78° C | 65% | 30 hPa | 0 mm | 0.89 m/s, 253° | 51 W/m² | - |
| 1777987288 | 17.22° C | 67% | 30 hPa | 0 mm | 0 m/s | 51 W/m² | - |
| 1777986991 | 17.22° C | 67% | 30 hPa | 0 mm | 0.89 m/s, 288° | 48 W/m² | - |
| 1777986688 | 17.22° C | 67% | 30 hPa | 0 mm | 0 m/s | 44 W/m² | - |
| 1777986387 | 16.67° C | 68% | 30 hPa | 0 mm | 0.45 m/s, 284° | 40 W/m² | - |
| 1777986093 | 16.67° C | 69% | 30 hPa | 0 mm | 0.45 m/s, 291° | 40 W/m² | - |
| 1777985787 | 16.67° C | 73% | 30 hPa | 0 mm | 0 m/s | 41 W/m² | - |
| 1777985488 | 16.11° C | 72% | 30 hPa | 0 mm | 0 m/s | 47 W/m² | - |
| 1777985194 | 15.56° C | 73% | 30 hPa | 0 mm | 0 m/s | 43 W/m² | - |
* Rain latest hour (hover to see other rain measurements)
** Current wind speed in m/s (hover to see current wind gust speed)